Location: Baller�as
(41.9020°N, 0.1554°W)
Time: 12:44:01
(UTC+00:00)

Cosmos 407 Rocket - Pass Details

Date: 10 August 2020
Orbit: 744 x 786 km, 74.0° (Epoch: 22 September)

Event Time Altitude Azimuth Distance (km) Brightness Sun altitude
Rises 20:41:33 0° 209° (SSW) 3,259 6.7 -16.0°
Reaches altitude 10° 20:43:58 10° 213° (SSW) 2,332 5.9 -16.4°
Maximum altitude 20:49:12 59° 293° (WNW) 900 4.1 -17.1°
Drops below altitude 10° 20:54:25 10° 12° (NNE) 2,326 6.4 -17.8°
Sets 20:56:50 0° 17° (NNE) 3,250 7.1 -18.2°
